{"data":{"norad_id":58236,"intl_designator":"2023-171G","name":"STARLINK-30853","alt_names":[],"object_type":"PAYLOAD","status":"ACTIVE","operator":null,"country":"US","launch_date":"2023-11-08","launch_site_code":"AFETR","launch_vehicle":null,"mission":null,"orbit_class":"UNKNOWN","rcs_meters":null,"size_class":null,"mass_kg":null,"dimensions":null,"purposes":["comms"],"wikipedia_slug":null,"has_3d_model":false,"image_url":null,"decayed_at":null,"tle_current":{"epoch":"2026-05-25T04:59:54.522816Z","epoch_age_seconds":63938,"freshness":"FRESH","line1":"1 58236U 23171G   26145.20826994  .00001641  00000+0  69138-4 0  9998","line2":"2 58236  42.9993 213.3874 0001546 269.5385  90.5289 15.27580545141432","mean_motion":15.27580545,"eccentricity":0.0001546,"inclination_deg":42.9993,"raan_deg":213.3874,"arg_perigee_deg":269.5385,"mean_anomaly_deg":90.5289,"bstar":6.9138e-5,"rev_number":14143,"period_min":94.26671508179,"perigee_km":481.98672499592,"apogee_km":484.10820323223,"semimajor_km":6861.1844641141,"source":"CELESTRAK","updated_at":"2026-05-25T13:38:18.580388Z"}}}